User: anonymous   Login
Location: Unspecified
(0.0000°N, 0.0000°E)
Time: 04:35:56
(UTC+00:00)
Language:

STARLINK-35677 - Orbit

View from above orbital plane
View from above orbital plane
View from above satellite
View from above satellite

Ground track
Ground track

The orbit is defined by the following mean orbital elements,

1 66220U          26145.24320259 +.00000000 +00000-0 +69651-3 0 00004
2 66220  53.1584 234.0816 0001329  84.1673 275.9480 15.30216590    09
Epoch (UTC): 25 May 2026 05:50:12
Eccentricity: 0.0001329
inclination: 53.1584°
perigee height: 474 km
apogee height: 476 km
right ascension of ascending node: 234.0816°
argument of perigee: 84.1673°
revolutions per day: 15.30216590
mean anomaly at epoch: 275.9480°

The dashed part of the orbit path shows where the satellite is in the earth's shadow,  

DLR